User: anonymous   Login
Location: Carri�res
(48.9069°N, 2.1792°E)
Time: 18:45:02
(UTC+00:00)
Language:

SJ-11-01 - Orbit

View from above orbital plane
View from above orbital plane
View from above satellite
View from above satellite

Ground track
Ground track

The orbit data is extracted from the following two-line orbital elements,

1 36088U 09061A   21210.31648155  .00000041  00000-0  17676-4 0  9996
2 36088  97.9518 233.7858 0010349 235.8117 124.2105 14.60224008623986
Epoch (UTC): 29 July 2021 07:35:44
Eccentricity: 0.0010349
inclination: 97.9518°
perigee height: 685 km
apogee height: 700 km
right ascension of ascending node: 233.7858°
argument of perigee: 235.8117°
revolutions per day: 14.60224008
mean anomaly at epoch: 124.2105°
orbit number at epoch: 62398

The dashed part of the orbit path shows where the satellite is in the earth's shadow,  

DLR